CW2972 Weather Reports


time (UTC)temp
F
wind
direction
speed
knots
gust
knots
rain 1hr
in
rain 24hr
in
rain mn
in
humidity
%
barometer
mb
20220812003003 79 318 0.0 1.7 0.00 0.03 0.01 76 1017.4
20220812002803 79 321 0.0 1.7 0.00 0.03 0.01 76 1017.4
20220812002603 79 324 0.9 1.7 0.00 0.03 0.01 75 1017.5
20220812002424 79 323 0.9 1.7 0.00 0.03 0.01 75 1017.4
20220812002225 80 315 0.9 1.7 0.00 0.03 0.01 75 1017.5
20220812002004 80 313 0.9 1.7 0.00 0.03 0.01 75 1017.4
20220812001804 80 311 0.9 2.6 0.00 0.03 0.01 75 1017.4
20220812001625 80 308 0.9 2.6 0.00 0.03 0.01 75 1017.4
20220812001446 80 310 0.9 2.6 0.00 0.03 0.01 74 1017.3
20220812001224 80 311 0.9 2.6 0.00 0.04 0.01 74 1017.3
20220812001003 81 294 0.9 2.6 0.00 0.04 0.01 74 1017.3
20220812000824 81 283 0.9 1.7 0.00 0.04 0.01 74 1017.2
20220812000603 81 275 0.9 1.7 0.00 0.04 0.01 74 1017.3
20220812000403 81 275 0.9 2.6 0.00 0.04 0.01 73 1017.2
20220812000246 81 282 0.9 2.6 0.00 0.04 0.01 73 1017.2
20220812000004 81 295 0.9 4.3 0.00 0.04 0.01 73 1017.2
20220811235846 81 289 0.9 4.3 0.00 0.04 0.01 72 1017.2
20220811235604 82 284 0.9 4.3 0.00 0.04 0.01 72 1017.1
20220811235404 82 291 0.9 4.3 0.00 0.04 0.01 71 1017.0
20220811235204 82 286 0.9 4.3 0.00 0.04 0.01 71 1017.0
20220811235004 82 300 0.9 2.6 0.00 0.04 0.01 71 1017.0
20220811234824 82 309 0.9 4.3 0.00 0.04 0.01 71 1017.0
20220811234624 83 313 0.9 4.3 0.00 0.04 0.01 71 1017.0
20220811234424 83 308 0.9 4.3 0.00 0.04 0.01 71 1017.0
20220811234245 83 301 0.9 4.3 0.00 0.04 0.01 71 1017.0
20220811234024 83 298 0.9 4.3 0.00 0.05 0.01 71 1017.0
20220811233825 83 301 0.9 4.3 0.00 0.05 0.01 71 1017.0
20220811233604 82 306 1.7 4.3 0.00 0.05 0.01 71 1017.0
20220811233404 82 311 1.7 4.3 0.00 0.05 0.01 71 1016.9
20220811233204 83 305 1.7 4.3 0.00 0.05 0.01 71 1016.9
20220811233025 83 307 1.7 4.3 0.00 0.05 0.01 71 1016.9
20220811232845 83 298 1.7 4.3 0.00 0.05 0.01 70 1016.8
20220811232624 83 299 1.7 6.1 0.00 0.05 0.01 70 1016.9
20220811232403 83 299 1.7 7.0 0.00 0.05 0.01 70 1016.9
20220811232203 83 300 1.7 7.0 0.00 0.05 0.01 70 1016.8
20220811232045 83 295 1.7 7.0 0.00 0.05 0.01 70 1016.8
20220811231803 84 302 1.7 7.0 0.00 0.05 0.01 69 1016.8
20220811231646 84 294 1.7 7.0 0.00 0.05 0.01 68 1016.8
20220811231425 84 279 1.7 3.5 0.00 0.05 0.01 68 1016.8
20220811231225 84 318 1.7 3.5 0.00 0.05 0.01 68 1016.9
20220811231004 85 335 1.7 3.5 0.00 0.05 0.01 68 1016.8
20220811230846 85 339 1.7 3.5 0.00 0.05 0.01 68 1016.8
20220811230604 85 357 1.7 3.5 0.00 0.05 0.01 68 1016.7
20220811230424 85 8 1.7 4.3 0.00 0.05 0.01 68 1016.8
20220811230203 85 349 1.7 4.3 0.00 0.05 0.01 68 1016.7
20220811230003 85 323 1.7 4.3 0.00 0.05 0.01 67 1016.7
20220811225803 85 288 1.7 4.3 0.00 0.05 0.01 67 1016.7
20220811225625 85 275 1.7 4.3 0.00 0.05 0.01 67 1016.8
20220811225404 85 261 1.7 3.5 0.00 0.05 0.01 66 1016.8
20220811225246 85 266 1.7 3.5 0.00 0.05 0.01 66 1016.8
20220811225046 85 269 1.7 3.5 0.00 0.05 0.01 66 1016.8
20220811224804 85 273 1.7 3.5 0.00 0.05 0.01 66 1016.8
20220811224603 85 281 1.7 3.5 0.00 0.05 0.01 67 1016.8
20220811224445 85 283 1.7 3.5 0.00 0.05 0.01 68 1016.8
20220811224203 85 279 1.7 4.3 0.00 0.05 0.01 68 1016.8
20220811224024 85 278 1.7 6.1 0.00 0.05 0.01 67 1016.7
20220811223803 85 279 1.7 6.1 0.00 0.05 0.01 67 1016.8
20220811223645 85 278 1.7 6.1 0.00 0.05 0.01 67 1016.8
20220811223446 85 276 1.7 6.1 0.00 0.05 0.01 67 1016.8
20220811223204 85 289 1.7 6.1 0.00 0.05 0.01 67 1016.8
20220811223046 85 284 1.7 6.1 0.00 0.05 0.01 68 1016.8
20220811222804 85 280 1.7 5.2 0.00 0.05 0.01 69 1016.8
20220811222646 85 283 1.7 5.2 0.00 0.06 0.01 69 1016.8
20220811222424 85 286 1.7 5.2 0.00 0.08 0.01 70 1016.8
20220811222224 85 275 1.7 5.2 0.00 0.10 0.01 70 1016.8
20220811222024 85 293 1.7 5.2 0.00 0.11 0.01 69 1016.8
20220811221803 85 274 1.7 3.5 0.00 0.12 0.01 70 1016.8
20220811221624 85 277 1.7 5.2 0.00 0.13 0.01 69 1016.8
20220811221403 85 280 1.7 5.2 0.00 0.15 0.01 69 1016.7
20220811221246 85 288 1.7 5.2 0.00 0.17 0.01 69 1016.8
20220811221025 85 288 1.7 5.2 0.00 0.19 0.01 68 1016.8
20220811220804 85 308 1.7 5.2 0.00 0.23 0.01 68 1016.7
20220811220625 85 333 1.7 5.2 0.00 0.26 0.01 68 1016.7
20220811220404 85 351 1.7 5.2 0.00 0.29 0.01 69 1016.7
20220811220245 85 8 1.7 5.2 0.00 0.31 0.01 69 1016.7
20220811220045 85 16 1.7 6.1 0.00 0.32 0.01 70 1016.7
20220811215803 85 18 1.7 6.1 0.00 0.32 0.01 69 1016.8
20220811215603 85 16 1.7 6.1 0.00 0.32 0.01 69 1016.9
20220811215424 85 9 1.7 6.1 0.00 0.32 0.01 69 1016.8
20220811215203 85 335 1.7 6.1 0.00 0.32 0.01 68 1016.8
20220811215025 85 304 1.7 5.2 0.00 0.32 0.01 69 1016.8
20220811214825 85 277 1.7 5.2 0.00 0.32 0.01 70 1016.7
20220811214646 85 277 1.7 5.2 0.00 0.32 0.01 69 1016.7
20220811214404 85 282 2.6 6.1 0.00 0.32 0.01 69 1016.8
20220811214246 85 300 2.6 6.1 0.00 0.32 0.01 69 1016.8
20220811214046 85 324 2.6 6.1 0.00 0.32 0.01 69 1016.8
20220811213824 85 334 2.6 7.0 0.00 0.32 0.01 69 1016.8
20220811213624 85 336 2.6 7.0 0.00 0.32 0.01 69 1016.8
20220811213445 85 350 2.6 7.0 0.00 0.32 0.01 70 1016.7
20220811213245 85 344 2.6 7.0 0.00 0.32 0.01 70 1016.7
20220811213003 85 344 2.6 7.0 0.00 0.32 0.01 71 1016.7
20220811212846 85 352 2.6 7.0 0.00 0.32 0.01 70 1016.8
20220811212646 85 349 2.6 6.1 0.00 0.32 0.01 72 1016.6
20220811212404 85 349 2.6 6.1 0.00 0.32 0.01 71 1016.7
20220811212246 85 352 1.7 6.1 0.00 0.32 0.01 71 1016.7
20220811212004 85 357 1.7 6.1 0.00 0.32 0.01 70 1016.7
20220811211803 85 349 1.7 6.1 0.00 0.32 0.01 70 1016.7
20220811211603 86 357 1.7 6.1 0.00 0.32 0.01 70 1016.7
20220811211445 86 352 1.7 4.3 0.00 0.32 0.01 70 1016.7
20220811211203 86 335 1.7 7.0 0.00 0.32 0.01 70 1016.7
20220811211003 85 307 2.6 7.0 0.00 0.32 0.01 70 1016.8
20220811210803 85 322 2.6 7.0 0.00 0.32 0.01 70 1016.7
20220811210604 85 328 2.6 7.0 0.00 0.32 0.01 70 1016.7
20220811210446 85 335 2.6 7.0 0.00 0.32 0.01 70 1016.8
20220811210204 85 351 2.6 7.8 0.00 0.32 0.01 72 1016.8
20220811210025 85 351 3.5 7.8 0.00 0.32 0.01 72 1016.8
20220811205804 85 346 2.6 7.8 0.00 0.32 0.01 72 1016.8
20220811205624 85 341 2.6 7.8 0.00 0.32 0.01 71 1016.8
20220811205403 86 335 2.6 7.8 0.00 0.32 0.01 71 1016.9
20220811205245 86 333 2.6 6.1 0.00 0.32 0.01 71 1016.9
20220811205045 85 336 2.6 6.1 0.00 0.32 0.01 71 1016.9
20220811204803 85 350 2.6 6.1 0.00 0.32 0.01 71 1016.9
20220811204603 85 356 3.5 7.8 0.00 0.32 0.01 71 1016.9
20220811204404 85 2 3.5 7.8 0.00 0.32 0.01 71 1016.9
20220811204204 85 7 3.5 7.8 0.00 0.32 0.01 71 1016.9
20220811204004 85 5 3.5 7.8 0.00 0.32 0.01 72 1017.0
20220811203825 85 360 3.5 7.8 0.00 0.32 0.01 71 1017.0
20220811203603 85 10 3.5 7.0 0.00 0.32 0.01 71 1017.0
20220811203403 85 9 2.6 7.0 0.00 0.32 0.01 72 1017.1
20220811203203 85 13 2.6 7.0 0.00 0.32 0.01 71 1017.1
20220811203003 86 9 2.6 7.0 0.00 0.32 0.01 70 1017.1
20220811202824 86 17 2.6 7.0 0.00 0.32 0.01 70 1017.1
20220811202624 86 7 2.6 7.0 0.00 0.32 0.01 72 1017.0
20220811202403 86 10 2.6 7.0 0.00 0.32 0.01 70 1017.1
20220811202204 86 6 2.6 7.8 0.00 0.32 0.01 70 1017.1
20220811202004 86 8 2.6 7.8 0.00 0.32 0.01 70 1017.1
20220811201804 86 4 2.6 7.8 0.00 0.32 0.01 71 1017.1
20220811201646 86 2 2.6 7.8 0.00 0.32 0.01 71 1017.2
20220811201403 86 356 2.6 7.8 0.00 0.32 0.01 70 1017.2
20220811201224 86 357 2.6 7.0 0.00 0.32 0.01 70 1017.2
20220811201024 86 2 2.6 7.0 0.00 0.32 0.01 71 1017.3
20220811200824 86 358 2.6 7.0 0.00 0.32 0.01 71 1017.3
20220811200603 86 5 2.6 7.0 0.00 0.32 0.01 71 1017.3
20220811200424 86 3 2.6 6.1 0.00 0.32 0.01 72 1017.3
20220811200204 86 336 2.6 4.3 0.00 0.32 0.01 72 1017.3
20220811200004 86 319 2.6 6.1 0.00 0.32 0.01 71 1017.4
20220811195825 86 319 2.6 6.1 0.00 0.32 0.01 71 1017.4
20220811195625 86 337 2.6 7.8 0.00 0.32 0.01 71 1017.4
20220811195425 86 347 2.6 7.8 0.00 0.32 0.01 71 1017.5
20220811195224 86 357 2.6 7.8 0.00 0.32 0.01 70 1017.5
20220811195046 86 5 2.6 7.8 0.00 0.32 0.01 70 1017.6
20220811194803 86 7 2.6 8.7 0.00 0.32 0.01 71 1017.5
20220811194603 86 347 2.6 8.7 0.00 0.32 0.01 72 1017.6
20220811194445 86 350 2.6 8.7 0.00 0.32 0.01 72 1017.6
20220811194224 86 327 2.6 8.7 0.00 0.32 0.01 72 1017.6
20220811194004 86 307 2.6 8.7 0.00 0.32 0.01 72 1017.6
20220811193804 86 298 2.6 7.0 0.00 0.32 0.01 71 1017.6
20220811193604 86 320 2.6 7.0 0.00 0.32 0.01 71 1017.7
20220811193404 86 318 1.7 7.0 0.00 0.32 0.01 71 1017.7
20220811193204 86 321 1.7 7.0 0.00 0.32 0.01 72 1017.6
20220811193003 86 332 1.7 6.1 0.00 0.32 0.01 73 1017.6
20220811192803 86 336 2.6 6.1 0.00 0.32 0.01 72 1017.6
20220811192603 86 345 2.6 6.1 0.00 0.32 0.01 72 1017.6
20220811192403 85 347 2.6 6.1 0.00 0.32 0.01 72 1017.7
20220811192245 85 351 2.6 6.1 0.00 0.32 0.01 74 1017.6
20220811192003 84 350 2.6 6.1 0.00 0.32 0.01 74 1017.6
20220811191845 84 350 2.6 6.1 0.00 0.32 0.01 73 1017.6
20220811191604 84 342 2.6 6.1 0.00 0.32 0.01 73 1017.6
20220811191425 85 338 2.6 6.1 0.00 0.32 0.01 72 1017.6
20220811191203 85 342 2.6 6.1 0.00 0.32 0.01 73 1017.7
20220811191003 85 344 2.6 6.1 0.00 0.32 0.01 73 1017.7
20220811190824 85 343 2.6 6.1 0.00 0.32 0.01 72 1017.7
20220811190623 85 348 2.6 6.1 0.00 0.32 0.01 72 1017.8
20220811190403 85 353 2.6 6.1 0.00 0.32 0.01 72 1017.7
20220811190244 86 353 1.7 6.1 0.00 0.32 0.01 74 1017.8
20220811190002 85 350 1.7 6.1 0.00 0.32 0.01 73 1017.7
20220811185802 85 334 1.7 6.1 0.00 0.32 0.01 73 1017.8
20220811185644 85 323 1.7 6.1 0.00 0.32 0.01 72 1017.8
20220811185444 86 309 1.7 6.1 0.00 0.32 0.01 72 1017.9
20220811185224 86 311 1.7 7.0 0.00 0.32 0.01 71 1017.9
20220811185024 86 293 1.7 7.0 0.00 0.32 0.01 72 1017.9
20220811184803 86 300 2.6 7.0 0.00 0.32 0.01 72 1017.9
20220811184624 86 307 2.6 7.0 0.00 0.32 0.01 72 1017.8
20220811184423 86 305 2.6 7.0 0.00 0.32 0.01 71 1017.9
20220811184223 86 318 2.6 5.2 0.00 0.32 0.01 72 1018.0
20220811184023 86 345 2.6 6.1 0.00 0.32 0.01 71 1018.0
20220811183823 86 355 2.6 7.0 0.00 0.32 0.01 71 1018.1
20220811183623 86 359 2.6 7.0 0.00 0.32 0.01 72 1018.1
20220811183402 86 354 2.6 7.0 0.00 0.32 0.01 71 1018.1
20220811183223 86 358 2.6 7.0 0.00 0.32 0.01 72 1018.1
20220811183045 86 353 2.6 7.0 0.00 0.32 0.01 71 1018.2
20220811182803 85 343 2.6 6.1 0.00 0.32 0.01 74 1018.1
20220811182645 85 347 2.6 6.1 0.00 0.32 0.01 72 1018.2
20220811182424 85 352 2.6 6.1 0.00 0.32 0.01 73 1018.2
20220811182202 85 354 2.6 6.1 0.00 0.32 0.01 73 1018.3
20220811182023 85 348 1.7 6.1 0.00 0.32 0.01 72 1018.3
20220811181823 85 343 1.7 5.2 0.00 0.32 0.01 72 1018.3
20220811181602 85 336 1.7 4.3 0.00 0.32 0.01 73 1018.3
20220811181444 85 333 1.7 4.3 0.00 0.32 0.01 72 1018.3
20220811181223 85 314 1.7 4.3 0.00 0.32 0.01 73 1018.4
20220811181002 85 300 1.7 3.5 0.00 0.32 0.01 73 1018.4
20220811180803 84 316 1.7 6.1 0.00 0.32 0.01 73 1018.4
20220811180603 84 333 1.7 6.1 0.00 0.32 0.01 73 1018.4
20220811180403 84 341 1.7 6.1 0.00 0.32 0.01 75 1018.5
20220811180203 84 348 1.7 6.1 0.00 0.32 0.01 74 1018.5
20220811180023 84 352 1.7 6.1 0.00 0.32 0.01 74 1018.5
20220811175844 84 350 1.7 6.1 0.00 0.32 0.01 74 1018.5
20220811175623 84 345 1.7 4.3 0.00 0.32 0.01 76 1018.6
20220811175402 84 330 1.7 4.3 0.00 0.32 0.01 76 1018.6
20220811175244 84 318 1.7 4.3 0.00 0.32 0.01 76 1018.5
20220811175023 84 314 1.7 5.2 0.00 0.32 0.01 77 1018.5
20220811174802 84 323 1.7 5.2 0.00 0.32 0.01 78 1018.6
20220811174624 84 330 1.7 5.2 0.00 0.32 0.01 77 1018.6
20220811174424 83 343 1.7 5.2 0.00 0.32 0.01 77 1018.6
20220811174245 83 353 1.7 5.2 0.00 0.32 0.01 78 1018.7
20220811174003 83 359 1.7 4.3 0.00 0.32 0.01 79 1018.7
20220811173802 83 359 1.7 6.1 0.00 0.32 0.01 80 1018.7
20220811173623 83 355 1.7 6.1 0.00 0.32 0.01 78 1018.7
20220811173444 83 350 1.7 6.1 0.00 0.32 0.01 78 1018.7
20220811173202 84 340 1.7 6.1 0.00 0.32 0.01 77 1018.8
20220811173002 84 331 1.7 6.1 0.00 0.32 0.01 78 1018.8
20220811172802 84 333 1.7 4.3 0.00 0.32 0.01 78 1018.8
20220811172644 84 337 1.7 4.3 0.00 0.32 0.01 78 1018.9
20220811172403 84 353 1.7 4.3 0.00 0.32 0.01 78 1018.9
20220811172203 84 355 1.7 4.3 0.00 0.32 0.01 80 1018.9
20220811172024 84 348 1.7 4.3 0.00 0.32 0.01 80 1019.0
20220811171802 83 338 1.7 4.3 0.00 0.32 0.01 80 1019.0
20220811171623 83 328 1.7 3.5 0.00 0.32 0.01 81 1018.9
20220811171402 82 327 1.7 4.3 0.00 0.32 0.01 80 1018.9
20220811171202 82 335 1.7 4.3 0.00 0.32 0.01 80 1019.0
20220811171002 82 335 1.7 4.3 0.00 0.32 0.01 83 1019.0
20220811170802 81 339 1.7 4.3 0.00 0.32 0.01 82 1019.0
20220811170623 81 346 1.7 4.3 0.00 0.32 0.01 85 1019.1
20220811170423 81 338 1.7 3.5 0.00 0.32 0.01 85 1019.1
20220811170203 81 337 0.9 2.6 0.00 0.32 0.01 83 1019.1
20220811170045 80 341 0.9 3.5 0.00 0.32 0.01 82 1019.1
20220811165823 81 342 0.9 3.5 0.00 0.32 0.01 81 1019.1
20220811165645 81 331 0.9 3.5 0.00 0.32 0.01 81 1019.1
20220811165423 81 330 0.9 3.5 0.00 0.32 0.01 83 1019.2
20220811165244 81 316 0.9 3.5 0.00 0.32 0.01 83 1019.2
20220811165002 81 310 0.9 1.7 0.00 0.32 0.01 83 1019.2
20220811164802 81 340 1.7 1.7 0.00 0.32 0.01 83 1019.2
20220811164602 81 5 1.7 3.5 0.00 0.32 0.01 84 1019.3
20220811164423 81 4 1.7 3.5 0.00 0.32 0.01 83 1019.3
20220811164223 81 7 1.7 3.5 0.00 0.32 0.01 83 1019.3
20220811164003 81 359 0.9 3.5 0.00 0.32 0.01 82 1019.3
20220811163845 81 354 0.9 3.5 0.00 0.32 0.01 82 1019.4
20220811163603 81 337 0.9 2.6 0.00 0.32 0.01 82 1019.4
20220811163423 81 330 0.9 2.6 0.00 0.32 0.01 82 1019.4
20220811163244 81 333 0.9 2.6 0.00 0.32 0.01 82 1019.4
20220811163002 81 341 0.9 2.6 0.00 0.32 0.01 82 1019.4
20220811162802 81 345 1.7 2.6 0.00 0.32 0.01 82 1019.4
20220811162644 81 338 1.7 2.6 0.00 0.32 0.01 82 1019.4
20220811162444 81 353 1.7 3.5 0.00 0.32 0.01 82 1019.4
20220811162223 81 347 1.7 3.5 0.00 0.32 0.01 82 1019.4
20220811162002 81 351 1.7 4.3 0.00 0.32 0.01 82 1019.4
20220811161803 81 352 1.7 4.3 0.00 0.32 0.01 82 1019.4
20220811161624 82 355 0.9 4.3 0.00 0.32 0.01 81 1019.4
20220811161445 82 351 0.9 4.3 0.00 0.32 0.01 81 1019.4
20220811161223 82 354 0.9 4.3 0.00 0.32 0.01 80 1019.4
20220811161002 83 346 0.9 3.5 0.00 0.32 0.01 80 1019.3
20220811160823 83 346 0.0 3.5 0.00 0.32 0.01 81 1019.3
20220811160602 83 350 0.0 3.5 0.00 0.32 0.01 80 1019.4
20220811160423 83 342 0.0 2.6 0.00 0.32 0.01 81 1019.3
20220811160202 83 315 0.0 2.6 0.00 0.32 0.01 81 1019.3
20220811160002 83 331 0.0 0.9 0.00 0.32 0.01 84 1019.3
20220811155802 82 293 0.0 1.7 0.00 0.32 0.01 84 1019.3
20220811155624 82 308 0.9 1.7 0.00 0.32 0.01 86 1019.3
20220811155403 82 303 0.9 1.7 0.00 0.32 0.01 85 1019.4
20220811155224 81 335 0.9 1.7 0.00 0.32 0.01 87 1019.4
20220811155002 81 344 0.9 2.6 0.00 0.32 0.01 87 1019.3
20220811154802 80 350 0.9 2.6 0.00 0.32 0.01 87 1019.3
20220811154644 80 337 0.9 2.6 0.00 0.32 0.01 86 1019.4
20220811154402 80 321 0.9 2.6 0.00 0.32 0.01 85 1019.3
20220811154202 80 305 0.9 2.6 0.00 0.32 0.01 86 1019.4
20220811154023 80 280 0.9 2.6 0.00 0.32 0.01 86 1019.3
20220811153844 80 255 0.0 1.7 0.00 0.32 0.01 86 1019.3
20220811153623 80 256 0.0 1.7 0.00 0.32 0.01 87 1019.4
20220811153403 80 274 0.0 1.7 0.00 0.32 0.01 88 1019.3
20220811153224 79 274 0.0 1.7 0.00 0.32 0.01 88 1019.3
20220811153024 79 287 0.0 1.7 0.00 0.32 0.01 90 1019.3
20220811152823 78 305 0.0 1.7 0.00 0.32 0.01 90 1019.2
20220811152602 78 316 0.0 1.7 0.00 0.32 0.01 90 1019.3
20220811152444 78 299 0.0 1.7 0.00 0.32 0.01 90 1019.3
20220811152202 77 319 0.0 1.7 0.00 0.32 0.01 92 1019.4
20220811152002 77 320 0.0 1.7 0.00 0.32 0.01 91 1019.4
20220811151844 77 308 0.0 1.7 0.00 0.32 0.01 91 1019.4
20220811151602 77 273 0.0 0.9 0.00 0.32 0.01 92 1019.5
20220811151423 77 268 0.0 0.9 0.00 0.32 0.01 92 1019.5
20220811151224 76 257 0.0 0.9 0.00 0.32 0.01 92 1019.5
20220811151003 76 258 0.0 0.9 0.00 0.32 0.01 92 1019.5
20220811150803 76 259 0.0 0.9 0.00 0.32 0.01 92 1019.5
20220811150603 76 259 0.0 0.9 0.00 0.32 0.01 92 1019.5
20220811150402 76 259 0.0 0.9 0.00 0.32 0.01 92 1019.5
20220811150202 76 259 0.0 0.9 0.00 0.32 0.01 92 1019.4
20220811150002 76 259 0.0 0.9 0.00 0.32 0.01 92 1019.5
20220811145802 76 259 0.0 0.9 0.00 0.32 0.01 92 1019.4
20220811145644 76 259 0.0 0.9 0.00 0.32 0.01 92 1019.4
20220811145402 76 264 0.0 0.9 0.00 0.32 0.01 92 1019.4
20220811145202 76 268 0.0 0.9 0.00 0.32 0.01 91 1019.4
20220811145003 76 271 0.0 0.9 0.00 0.32 0.01 91 1019.4
20220811144824 76 269 0.0 0.9 0.00 0.32 0.01 92 1019.4
20220811144624 76 266 0.0 0.9 0.00 0.32 0.01 91 1019.4
20220811144423 76 263 0.0 0.9 0.00 0.32 0.01 91 1019.4
20220811144223 76 260 0.0 0.9 0.00 0.32 0.01 91 1019.4
20220811144044 76 259 0.0 0.9 0.00 0.32 0.01 92 1019.4
20220811143844 76 259 0.0 0.9 0.00 0.32 0.01 92 1019.3
20220811143644 76 261 0.0 0.9 0.00 0.32 0.01 91 1019.3
20220811143402 76 273 0.0 0.9 0.00 0.32 0.01 92 1019.3
20220811143202 76 294 0.0 1.7 0.00 0.32 0.01 92 1019.3
20220811143044 76 305 0.0 1.7 0.00 0.32 0.01 92 1019.3
20220811142824 76 314 0.0 1.7 0.00 0.32 0.01 92 1019.3
20220811142603 76 332 0.0 3.5 0.00 0.32 0.01 92 1019.3
20220811142403 76 338 0.0 3.5 0.00 0.32 0.01 92 1019.2
20220811142203 76 318 0.0 3.5 0.00 0.32 0.01 92 1019.2
20220811142024 76 304 0.0 3.5 0.00 0.32 0.01 92 1019.2
20220811141823 76 298 0.9 3.5 0.00 0.32 0.01 92 1019.2
20220811141623 76 282 0.9 3.5 0.00 0.32 0.01 92 1019.2
20220811141424 76 273 0.9 3.5 0.00 0.32 0.01 92 1019.2
20220811141202 76 286 0.9 3.5 0.00 0.32 0.01 92 1019.2
20220811141002 76 323 0.9 3.5 0.00 0.32 0.01 92 1019.1
20220811140802 76 336 0.9 3.5 0.00 0.32 0.01 93 1019.1
20220811140603 76 350 0.9 2.6 0.00 0.32 0.01 94 1019.1
20220811140403 76 354 0.9 2.6 0.00 0.32 0.01 94 1019.1
20220811140203 76 346 0.0 2.6 0.00 0.32 0.01 93 1019.2
20220811140003 76 339 0.0 1.7 0.00 0.32 0.01 93 1019.2
20220811135802 76 328 0.0 1.7 0.00 0.32 0.01 93 1019.2
20220811135602 76 312 0.0 1.7 0.00 0.32 0.01 94 1019.2
20220811135402 76 269 0.0 1.7 0.00 0.32 0.01 94 1019.2
20220811135202 76 244 0.0 0.9 0.00 0.32 0.01 94 1019.2
20220811135002 76 256 0.0 0.9 0.00 0.32 0.01 95 1019.2
20220811134823 75 255 0.0 0.9 0.00 0.32 0.01 95 1019.2
20220811134623 75 254 0.0 0.9 0.00 0.32 0.01 95 1019.1
20220811134402 75 254 0.0 0.9 0.00 0.32 0.01 95 1019.1
20220811134245 75 254 0.0 0.9 0.00 0.32 0.01 95 1019.2
20220811134045 75 0 0.0 0.0 0.00 0.32 0.01 95 1019.1
20220811133824 75 0 0.0 0.0 0.00 0.32 0.01 95 1019.2
20220811133624 75 0 0.0 0.0 0.00 0.32 0.01 95 1019.1
20220811133403 75 0 0.0 0.0 0.00 0.32 0.01 96 1019.1
20220811133244 75 0 0.0 0.0 0.00 0.32 0.01 96 1019.1
20220811133002 75 0 0.0 0.0 0.00 0.32 0.01 96 1019.2
20220811132802 75 0 0.0 0.0 0.00 0.32 0.01 96 1019.2
20220811132623 75 0 0.0 0.0 0.00 0.32 0.01 96 1019.2
20220811132423 75 0 0.0 0.0 0.00 0.32 0.01 96 1019.1
20220811132224 75 0 0.0 0.0 0.00 0.32 0.01 96 1019.2
20220811132003 75 0 0.0 0.0 0.00 0.32 0.01 96 1019.2
20220811131824 75 0 0.0 0.0 0.00 0.32 0.01 96 1019.3
20220811131602 75 0 0.0 0.0 0.00 0.32 0.01 96 1019.3
20220811131402 75 0 0.0 0.0 0.00 0.32 0.01 97 1019.3
20220811131203 74 0 0.0 0.0 0.00 0.32 0.01 97 1019.3
20220811131002 74 0 0.0 0.0 0.00 0.32 0.01 97 1019.3
20220811130823 74 0 0.0 0.0 0.00 0.32 0.01 97 1019.3
20220811130623 74 0 0.0 0.0 0.00 0.32 0.01 97 1019.3
20220811130444 74 0 0.0 0.0 0.00 0.32 0.01 97 1019.3
20220811130202 74 0 0.0 0.0 0.00 0.32 0.01 97 1019.3
20220811130045 74 0 0.0 0.0 0.00 0.32 0.01 97 1019.3
20220811125845 74 0 0.0 0.0 0.00 0.32 0.01 97 1019.2
20220811125645 74 0 0.0 0.0 0.00 0.32 0.01 97 1019.2
20220811125445 74 0 0.0 0.0 0.00 0.32 0.01 97 1019.2
20220811125202 74 0 0.0 0.0 0.00 0.32 0.01 97 1019.2
20220811125002 74 0 0.0 0.0 0.00 0.32 0.01 97 1019.2
20220811124844 74 0 0.0 0.0 0.00 0.32 0.01 97 1019.2
20220811124602 74 0 0.0 0.0 0.00 0.32 0.01 97 1019.3
20220811124402 74 0 0.0 0.0 0.00 0.32 0.01 97 1019.3
20220811124244 74 0 0.0 0.0 0.00 0.32 0.01 97 1019.2
20220811124044 74 0 0.0 0.0 0.00 0.32 0.01 97 1019.2
20220811123803 74 0 0.0 0.0 0.00 0.32 0.01 98 1019.1
20220811123624 74 0 0.0 0.0 0.00 0.32 0.01 98 1019.1
20220811123403 73 0 0.0 0.0 0.00 0.32 0.01 97 1019.1
20220811123224 73 0 0.0 0.0 0.00 0.32 0.01 98 1019.1
20220811123024 73 0 0.0 0.0 0.00 0.32 0.01 98 1019.1
20220811122824 73 0 0.0 0.0 0.00 0.32 0.01 98 1019.1
20220811122644 73 0 0.0 0.0 0.00 0.32 0.01 98 1019.0
20220811122402 73 0 0.0 0.0 0.00 0.32 0.01 98 1019.0
20220811122223 73 0 0.0 0.0 0.00 0.32 0.01 98 1019.0
20220811122023 73 0 0.0 0.0 0.00 0.32 0.01 98 1019.0
20220811121844 73 0 0.0 0.0 0.00 0.32 0.01 98 1019.0
20220811121645 73 0 0.0 0.0 0.00 0.32 0.01 98 1018.9
20220811121403 73 0 0.0 0.0 0.00 0.32 0.01 98 1018.9
20220811121224 73 0 0.0 0.0 0.00 0.32 0.01 98 1018.8
20220811121003 73 0 0.0 0.0 0.00 0.32 0.01 98 1018.8
20220811120802 73 0 0.0 0.0 0.00 0.32 0.01 98 1018.9
20220811120602 73 0 0.0 0.0 0.00 0.32 0.01 98 1018.9
20220811120423 73 0 0.0 0.0 0.00 0.32 0.01 98 1018.8
20220811120223 73 0 0.0 0.0 0.00 0.32 0.01 98 1018.9
20220811120002 73 0 0.0 0.0 0.00 0.32 0.01 98 1018.9
20220811115802 73 0 0.0 0.0 0.00 0.32 0.01 98 1018.8
20220811115603 73 0 0.0 0.0 0.00 0.32 0.01 98 1018.8
20220811115445 73 0 0.0 0.0 0.00 0.32 0.01 98 1018.8
20220811115224 73 0 0.0 0.0 0.00 0.32 0.01 98 1018.8
20220811115003 73 0 0.0 0.0 0.00 0.32 0.01 98 1018.8
20220811114802 73 0 0.0 0.0 0.00 0.32 0.01 98 1018.8
20220811114644 73 0 0.0 0.0 0.00 0.32 0.01 98 1018.8
20220811114402 73 0 0.0 0.0 0.00 0.32 0.01 98 1018.8
20220811114223 73 0 0.0 0.0 0.00 0.32 0.01 98 1018.8
20220811114023 73 0 0.0 0.0 0.00 0.32 0.01 98 1018.8
20220811113823 73 0 0.0 0.0 0.00 0.32 0.01 98 1018.8
20220811113602 73 0 0.0 0.0 0.00 0.32 0.01 98 1018.8
20220811113444 73 0 0.0 0.0 0.00 0.32 0.01 98 1018.8
20220811113203 73 0 0.0 0.0 0.00 0.32 0.01 98 1018.9
20220811113003 73 0 0.0 0.0 0.00 0.32 0.01 98 1018.8
20220811112824 73 0 0.0 0.0 0.00 0.32 0.01 98 1018.8
20220811112623 73 0 0.0 0.0 0.00 0.32 0.01 98 1018.8
20220811112445 72 0 0.0 0.0 0.00 0.32 0.01 98 1018.8
20220811112223 73 0 0.0 0.0 0.00 0.32 0.01 98 1018.8
20220811112023 72 0 0.0 0.0 0.00 0.32 0.01 98 1018.8
20220811111802 73 0 0.0 0.0 0.00 0.32 0.01 98 1018.7
20220811111623 73 0 0.0 0.0 0.00 0.32 0.01 98 1018.7
20220811111402 73 0 0.0 0.0 0.00 0.32 0.01 98 1018.7
20220811111244 72 0 0.0 0.0 0.00 0.32 0.01 98 1018.7
20220811111003 72 0 0.0 0.0 0.00 0.32 0.01 98 1018.7
20220811110824 72 0 0.0 0.0 0.00 0.32 0.01 98 1018.8
20220811110624 72 0 0.0 0.0 0.00 0.32 0.01 98 1018.8
20220811110424 72 0 0.0 0.0 0.00 0.32 0.01 98 1018.8
20220811110223 72 0 0.0 0.0 0.00 0.32 0.01 98 1018.8
20220811110044 72 0 0.0 0.0 0.00 0.32 0.01 98 1018.8
20220811105844 72 0 0.0 0.0 0.00 0.32 0.01 98 1018.8
20220811105602 72 0 0.0 0.0 0.00 0.32 0.01 98 1018.8
20220811105423 72 0 0.0 0.0 0.00 0.32 0.01 98 1018.8
20220811105202 72 0 0.0 0.0 0.00 0.32 0.01 98 1018.8
20220811105023 72 0 0.0 0.0 0.00 0.32 0.01 98 1018.8
20220811104803 72 0 0.0 0.0 0.00 0.32 0.01 98 1018.8
20220811104645 72 0 0.0 0.0 0.00 0.32 0.01 98 1018.8
20220811104424 72 0 0.0 0.0 0.00 0.32 0.01 98 1018.8
20220811104224 72 0 0.0 0.0 0.00 0.32 0.01 98 1018.8
20220811104002 72 0 0.0 0.0 0.00 0.32 0.01 98 1018.9
20220811103823 72 0 0.0 0.0 0.00 0.32 0.01 98 1018.9
20220811103602 72 0 0.0 0.0 0.00 0.32 0.01 98 1018.9
20220811103402 72 0 0.0 0.0 0.00 0.32 0.01 98 1018.9
20220811103202 72 0 0.0 0.0 0.00 0.32 0.01 98 1018.9
20220811103044 72 0 0.0 0.0 0.00 0.32 0.01 98 1018.9
20220811102823 72 0 0.0 0.0 0.00 0.32 0.01 98 1018.9
20220811102603 72 0 0.0 0.0 0.00 0.32 0.01 98 1018.8
20220811102424 72 0 0.0 0.0 0.00 0.32 0.01 98 1018.8
20220811102224 72 0 0.0 0.0 0.00 0.32 0.01 98 1018.8
20220811102002 72 0 0.0 0.0 0.00 0.32 0.01 98 1018.7
20220811101802 72 0 0.0 0.0 0.00 0.32 0.01 98 1018.7
20220811101602 72 0 0.0 0.0 0.00 0.32 0.01 98 1018.7
20220811101402 72 0 0.0 0.0 0.00 0.32 0.01 98 1018.7
20220811101202 72 0 0.0 0.0 0.00 0.32 0.01 98 1018.7
20220811101002 72 0 0.0 0.0 0.00 0.32 0.01 98 1018.7
20220811100844 72 0 0.0 0.0 0.00 0.32 0.01 98 1018.6
20220811100623 72 0 0.0 0.0 0.00 0.32 0.01 98 1018.6
20220811100403 72 0 0.0 0.0 0.00 0.32 0.01 98 1018.6
20220811100245 72 0 0.0 0.0 0.00 0.32 0.01 98 1018.6
20220811100024 72 0 0.0 0.0 0.00 0.32 0.01 98 1018.7
20220811095803 72 0 0.0 0.0 0.00 0.32 0.01 98 1018.6
20220811095602 72 0 0.0 0.0 0.00 0.32 0.01 98 1018.6
20220811095423 72 0 0.0 0.0 0.01 0.32 0.01 98 1018.6
20220811095202 72 0 0.0 0.0 0.01 0.32 0.01 98 1018.6
20220811095044 72 0 0.0 0.0 0.01 0.32 0.01 98 1018.6
20220811094844 72 0 0.0 0.0 0.01 0.32 0.01 98 1018.7
20220811094623 72 0 0.0 0.0 0.01 0.32 0.01 98 1018.7
20220811094423 72 0 0.0 0.0 0.01 0.32 0.01 98 1018.6
20220811094224 72 0 0.0 0.0 0.01 0.32 0.01 98 1018.6
20220811094003 72 0 0.0 0.0 0.01 0.32 0.01 98 1018.6
20220811093803 72 0 0.0 0.0 0.01 0.32 0.01 98 1018.5
20220811093603 72 0 0.0 0.0 0.01 0.32 0.01 98 1018.5
20220811093402 72 0 0.0 0.0 0.01 0.32 0.01 98 1018.5
20220811093202 72 0 0.0 0.0 0.01 0.32 0.01 98 1018.5
20220811093023 72 0 0.0 0.0 0.01 0.32 0.01 98 1018.5
20220811092802 72 0 0.0 0.0 0.01 0.32 0.01 98 1018.4
20220811092623 71 0 0.0 0.0 0.01 0.32 0.01 98 1018.5
20220811092402 71 0 0.0 0.0 0.01 0.32 0.01 98 1018.5
20220811092202 71 0 0.0 0.0 0.01 0.32 0.01 98 1018.5
20220811092045 71 0 0.0 0.0 0.01 0.32 0.01 98 1018.5
20220811091845 71 0 0.0 0.0 0.01 0.32 0.01 98 1018.5
20220811091603 71 0 0.0 0.0 0.01 0.32 0.01 98 1018.5
20220811091403 71 0 0.0 0.0 0.01 0.32 0.01 98 1018.5
20220811091245 71 0 0.0 0.0 0.01 0.32 0.01 98 1018.5
20220811091023 71 0 0.0 0.0 0.01 0.32 0.01 98 1018.6
20220811090823 71 0 0.0 0.0 0.01 0.32 0.01 97 1018.6
20220811090623 71 0 0.0 0.0 0.01 0.32 0.01 97 1018.6
20220811090423 71 0 0.0 0.0 0.01 0.32 0.01 97 1018.6
20220811090223 71 0 0.0 0.0 0.01 0.32 0.01 97 1018.6
20220811090044 71 0 0.0 0.0 0.01 0.32 0.01 97 1018.6
20220811085823 71 0 0.0 0.0 0.01 0.32 0.01 97 1018.6
20220811085603 71 0 0.0 0.0 0.01 0.32 0.01 97 1018.5
20220811085403 71 0 0.0 0.0 0.00 0.31 0.00 97 1018.5
20220811085224 71 0 0.0 0.0 0.00 0.31 0.00 97 1018.5
20220811085003 71 0 0.0 0.0 0.00 0.31 0.00 97 1018.5
20220811084802 71 0 0.0 0.0 0.00 0.31 0.00 97 1018.5
20220811084645 71 0 0.0 0.0 0.00 0.31 0.00 97 1018.4
20220811084402 72 0 0.0 0.0 0.00 0.31 0.00 97 1018.5
20220811084202 72 0 0.0 0.0 0.00 0.31 0.00 97 1018.6
20220811084023 72 0 0.0 0.0 0.00 0.31 0.00 97 1018.6
20220811083802 72 0 0.0 0.0 0.00 0.31 0.00 97 1018.7
20220811083602 72 0 0.0 0.0 0.00 0.31 0.00 97 1018.7
20220811083424 72 0 0.0 0.0 0.00 0.31 0.00 97 1018.7
20220811083203 72 0 0.0 0.0 0.00 0.31 0.00 97 1018.7
20220811083003 72 0 0.0 0.0 0.00 0.31 0.00 97 1018.7
20220811082845 72 0 0.0 0.0 0.00 0.31 0.00 97 1018.7
20220811082602 72 0 0.0 0.0 0.00 0.31 0.00 97 1018.7
20220811082402 72 0 0.0 0.0 0.00 0.31 0.00 98 1018.8
20220811082223 72 0 0.0 0.0 0.00 0.31 0.00 98 1018.7
20220811082002 72 0 0.0 0.0 0.00 0.31 0.00 97 1018.7
20220811081802 72 0 0.0 0.0 0.00 0.31 0.00 97 1018.7
20220811081602 72 0 0.0 0.0 0.00 0.31 0.00 97 1018.7
20220811081402 72 0 0.0 0.0 0.00 0.31 0.00 97 1018.7
20220811081203 72 0 0.0 0.0 0.00 0.31 0.00 97 1018.7
20220811081003 72 0 0.0 0.0 0.00 0.31 0.00 97 1018.7
20220811080845 72 0 0.0 0.0 0.00 0.31 0.00 97 1018.7
20220811080603 72 0 0.0 0.0 0.00 0.31 0.00 97 1018.6
20220811080423 72 0 0.0 0.0 0.00 0.31 0.00 97 1018.7
20220811080223 72 0 0.0 0.0 0.00 0.31 0.00 97 1018.8
20220811080023 72 0 0.0 0.0 0.00 0.31 0.00 97 1018.8
20220811075823 72 0 0.0 0.0 0.00 0.31 0.00 97 1018.8
20220811075623 72 0 0.0 0.0 0.00 0.31 0.00 97 1018.8
20220811075423 72 0 0.0 0.0 0.00 0.31 0.00 97 1018.8
20220811075223 72 0 0.0 0.0 0.00 0.31 0.00 97 1018.8
20220811075045 72 0 0.0 0.0 0.00 0.31 0.00 97 1018.8
20220811074803 72 0 0.0 0.0 0.00 0.31 0.00 97 1018.8
20220811074603 72 0 0.0 0.0 0.00 0.31 0.00 97 1018.7
20220811074445 72 0 0.0 0.0 0.00 0.31 0.00 97 1018.8
20220811074202 72 0 0.0 0.0 0.00 0.31 0.00 97 1018.7
20220811074023 72 0 0.0 0.0 0.00 0.31 0.00 97 1018.7
20220811073802 72 0 0.0 0.0 0.00 0.31 0.00 97 1018.7
20220811073623 72 0 0.0 0.0 0.00 0.31 0.00 97 1018.8
20220811073402 72 0 0.0 0.0 0.00 0.31 0.00 97 1018.7
20220811073202 72 0 0.0 0.0 0.00 0.31 0.00 97 1018.7
20220811073023 72 0 0.0 0.0 0.00 0.31 0.00 97 1018.7
20220811072803 72 0 0.0 0.0 0.00 0.31 0.00 97 1018.6
20220811072603 72 0 0.0 0.0 0.00 0.31 0.00 97 1018.7
20220811072403 72 0 0.0 0.0 0.00 0.31 0.00 97 1018.7
20220811072203 72 0 0.0 0.0 0.00 0.31 0.00 97 1018.7
20220811072024 72 0 0.0 0.0 0.00 0.31 0.00 97 1018.7
20220811071803 73 0 0.0 0.0 0.00 0.31 0.00 97 1018.7
20220811071602 73 0 0.0 0.0 0.00 0.31 0.00 97 1018.7
20220811071402 73 0 0.0 0.0 0.00 0.31 0.00 97 1018.7
20220811071202 73 0 0.0 0.0 0.00 0.31 0.00 97 1018.8
20220811071023 73 0 0.0 0.0 0.00 0.31 0.00 97 1018.9
20220811070802 73 0 0.0 0.0 0.00 0.31 0.00 97 1018.9
20220811070624 73 0 0.0 0.0 0.00 0.31 0.00 97 1018.8
20220811070403 73 0 0.0 0.0 0.00 0.31 0.00 97 1018.8
20220811070224 73 0 0.0 0.0 0.00 0.31 0.00 97 1018.9
20220811070045 73 0 0.0 0.0 0.00 0.31 0.00 97 1018.9
20220811065803 73 0 0.0 0.0 0.00 0.31 0.00 97 1019.0
20220811065602 73 0 0.0 0.0 0.00 0.31 0.00 97 1018.9
20220811065403 73 0 0.0 0.0 0.00 0.31 0.00 97 1019.0
20220811065223 73 0 0.0 0.0 0.00 0.31 0.00 97 1019.1
20220811065023 73 0 0.0 0.0 0.00 0.31 0.00 97 1019.1
20220811064802 73 0 0.0 0.0 0.00 0.31 0.00 97 1019.0
20220811064623 73 0 0.0 0.0 0.00 0.31 0.00 97 1019.0
20220811064445 73 0 0.0 0.0 0.00 0.31 0.00 97 1019.1
20220811064224 73 0 0.0 0.0 0.00 0.31 0.00 97 1019.1
20220811064003 73 0 0.0 0.0 0.00 0.31 0.00 97 1019.2
20220811063845 73 0 0.0 0.0 0.00 0.31 0.00 97 1019.1
20220811063603 73 0 0.0 0.0 0.00 0.31 0.00 97 1019.2
20220811063402 73 0 0.0 0.0 0.00 0.31 0.00 97 1019.2
20220811063244 73 0 0.0 0.0 0.00 0.31 0.00 97 1019.1
20220811063023 73 0 0.0 0.0 0.00 0.31 0.00 97 1019.1
20220811062802 73 0 0.0 0.0 0.00 0.31 0.00 97 1019.1
20220811062602 73 0 0.0 0.0 0.00 0.31 0.00 97 1019.1
20220811062402 73 0 0.0 0.0 0.00 0.31 0.00 97 1019.2
20220811062224 73 0 0.0 0.0 0.00 0.31 0.00 97 1019.2
20220811062045 73 0 0.0 0.0 0.00 0.31 0.00 97 1019.2
20220811061845 73 0 0.0 0.0 0.00 0.31 0.00 97 1019.2
20220811061624 73 0 0.0 0.0 0.00 0.31 0.00 97 1019.2
20220811061445 73 0 0.0 0.0 0.00 0.31 0.00 97 1019.2
20220811061224 73 0 0.0 0.0 0.00 0.31 0.00 97 1019.2
20220811061023 73 0 0.0 0.0 0.00 0.31 0.00 97 1019.2
20220811060824 74 0 0.0 0.0 0.00 0.31 0.00 97 1019.2
20220811060644 74 0 0.0 0.0 0.00 0.31 0.00 97 1019.3
20220811060402 74 0 0.0 0.0 0.00 0.31 0.00 97 1019.3
20220811060223 74 0 0.0 0.0 0.00 0.31 0.00 97 1019.3
20220811060045 74 0 0.0 0.0 0.00 0.31 0.00 97 1019.3
20220811055803 74 0 0.0 0.0 0.00 0.31 0.00 97 1019.3
20220811055603 74 0 0.0 0.0 0.00 0.31 0.00 97 1019.3
20220811055424 74 0 0.0 0.0 0.00 0.31 0.00 97 1019.3
20220811055203 74 0 0.0 0.0 0.00 0.31 0.00 97 1019.3
20220811055023 74 0 0.0 0.0 0.00 0.31 0.00 97 1019.2
20220811054802 74 0 0.0 0.0 0.00 0.31 0.00 97 1019.2
20220811054602 74 0 0.0 0.0 0.00 0.31 0.00 97 1019.2
20220811054423 74 0 0.0 0.0 0.00 0.31 0.00 97 1019.2
20220811054223 74 0 0.0 0.0 0.00 0.31 0.00 97 1019.2
20220811054023 74 0 0.0 0.0 0.00 0.31 0.00 97 1019.2
20220811053823 74 0 0.0 0.0 0.00 0.31 0.00 97 1019.2
20220811053603 74 0 0.0 0.0 0.00 0.31 0.00 97 1019.2
20220811053403 74 0 0.0 0.0 0.00 0.31 0.00 97 1019.2
20220811053203 74 0 0.0 0.0 0.00 0.31 0.00 97 1019.2
20220811053003 74 0 0.0 0.0 0.00 0.31 0.00 97 1019.2
20220811052802 74 0 0.0 0.0 0.00 0.31 0.00 97 1019.2
20220811052644 74 0 0.0 0.0 0.00 0.31 0.00 97 1019.2
20220811052423 74 0 0.0 0.0 0.00 0.31 0.00 97 1019.1
20220811052244 74 0 0.0 0.0 0.00 0.31 0.00 97 1019.1
20220811052002 74 0 0.0 0.0 0.00 0.31 0.00 97 1019.0
20220811051844 74 0 0.0 0.0 0.00 0.31 0.00 97 1019.0
20220811051602 74 0 0.0 0.0 0.00 0.31 0.00 97 1019.0
20220811051403 74 0 0.0 0.0 0.00 0.31 0.00 97 1019.0
20220811051203 74 0 0.0 0.0 0.00 0.31 0.00 97 1019.1
20220811051003 74 0 0.0 0.0 0.00 0.31 0.00 97 1019.1
20220811050803 74 0 0.0 0.0 0.00 0.31 0.00 97 1019.1
20220811050623 74 0 0.0 0.0 0.00 0.31 0.00 97 1019.0
20220811050402 74 0 0.0 0.0 0.00 0.31 0.00 97 1019.0
20220811050202 74 0 0.0 0.0 0.00 0.31 0.00 97 1019.0
20220811050003 74 0 0.0 0.0 0.00 0.31 0.00 97 1019.1
20220811045823 74 0 0.0 0.0 0.00 0.31 0.31 97 1019.0
20220811045602 74 0 0.0 0.0 0.00 0.31 0.31 97 1019.1
20220811045402 74 0 0.0 0.0 0.00 0.31 0.31 97 1018.9
20220811045203 74 0 0.0 0.0 0.00 0.31 0.31 97 1018.9
20220811045024 74 0 0.0 0.0 0.00 0.31 0.31 97 1018.9
20220811044803 74 0 0.0 0.0 0.00 0.31 0.31 97 1018.9
20220811044603 74 0 0.0 0.0 0.00 0.31 0.31 97 1018.9
20220811044403 74 0 0.0 0.0 0.00 0.31 0.31 97 1018.8
20220811044202 74 0 0.0 0.0 0.00 0.31 0.31 97 1018.8
20220811044023 74 0 0.0 0.0 0.00 0.31 0.31 97 1018.8
20220811043844 74 0 0.0 0.0 0.00 0.31 0.31 97 1018.8
20220811043623 74 0 0.0 0.0 0.00 0.31 0.31 97 1018.9
20220811043402 74 0 0.0 0.0 0.00 0.31 0.31 97 1018.9
20220811043224 74 0 0.0 0.0 0.00 0.31 0.31 97 1018.9
20220811043003 74 0 0.0 0.0 0.00 0.31 0.31 97 1018.9
20220811042824 74 0 0.0 0.0 0.00 0.31 0.31 97 1018.9
20220811042603 74 0 0.0 0.0 0.00 0.31 0.31 97 1018.9
20220811042403 74 0 0.0 0.0 0.00 0.31 0.31 97 1018.8
20220811042202 73 0 0.0 0.0 0.00 0.31 0.31 97 1018.9
20220811042002 74 0 0.0 0.0 0.00 0.31 0.31 97 1018.9
20220811041802 73 0 0.0 0.0 0.00 0.31 0.31 97 1018.8
20220811041623 73 0 0.0 0.0 0.00 0.31 0.31 97 1018.9
20220811041444 73 0 0.0 0.0 0.00 0.31 0.31 97 1018.9
20220811041244 73 0 0.0 0.0 0.00 0.31 0.31 97 1018.9
20220811041024 73 0 0.0 0.0 0.00 0.31 0.31 97 1018.9
20220811040803 73 0 0.0 0.0 0.00 0.31 0.31 97 1018.9
20220811040603 73 0 0.0 0.0 0.00 0.31 0.31 97 1018.9
20220811040445 73 0 0.0 0.0 0.00 0.31 0.31 97 1018.9
20220811040245 73 0 0.0 0.0 0.00 0.31 0.31 97 1018.9
20220811040045 73 0 0.0 0.0 0.00 0.31 0.31 97 1018.9
20220811035802 73 0 0.0 0.0 0.00 0.31 0.31 97 1018.9
20220811035602 73 0 0.0 0.0 0.00 0.31 0.31 97 1018.9
20220811035402 73 0 0.0 0.0 0.00 0.31 0.31 97 1019.0
20220811035202 73 0 0.0 0.0 0.00 0.31 0.31 97 1019.0
20220811035023 73 0 0.0 0.0 0.00 0.31 0.31 97 1019.0
20220811034824 73 0 0.0 0.0 0.00 0.31 0.31 97 1018.9
20220811034624 73 0 0.0 0.0 0.00 0.31 0.31 97 1018.9
20220811034424 73 0 0.0 0.0 0.00 0.31 0.31 97 1018.8
20220811034202 73 0 0.0 0.0 0.00 0.31 0.31 97 1018.8
20220811034002 73 0 0.0 0.0 0.00 0.31 0.31 97 1018.8
20220811033802 73 0 0.0 0.0 0.00 0.31 0.31 97 1018.8
20220811033602 73 0 0.0 0.0 0.00 0.31 0.31 96 1018.8
20220811033402 73 0 0.0 0.0 0.00 0.31 0.31 96 1018.7
20220811033202 73 0 0.0 0.0 0.00 0.31 0.31 96 1018.7
20220811033002 73 0 0.0 0.0 0.00 0.31 0.31 96 1018.7
20220811032803 73 0 0.0 0.0 0.00 0.31 0.31 96 1018.7
20220811032624 73 0 0.0 0.0 0.00 0.31 0.31 96 1018.7
20220811032403 73 0 0.0 0.0 0.00 0.31 0.31 97 1018.8
20220811032203 73 0 0.0 0.0 0.00 0.31 0.31 97 1018.8
20220811032003 73 0 0.0 0.0 0.00 0.31 0.31 97 1018.8
20220811031823 73 0 0.0 0.0 0.00 0.31 0.31 97 1018.8
20220811031623 73 0 0.0 0.0 0.00 0.31 0.31 97 1018.8
20220811031402 73 0 0.0 0.0 0.00 0.31 0.31 97 1018.9
20220811031223 73 0 0.0 0.0 0.00 0.31 0.31 97 1018.9
20220811031002 73 0 0.0 0.0 0.00 0.31 0.31 97 1018.9
20220811030824 73 0 0.0 0.0 0.00 0.31 0.31 97 1018.9
20220811030603 73 0 0.0 0.0 0.00 0.31 0.31 97 1019.0
20220811030403 73 0 0.0 0.0 0.00 0.31 0.31 97 1019.0
20220811030245 73 0 0.0 0.0 0.00 0.31 0.31 97 1019.0
20220811030003 73 0 0.0 0.0 0.00 0.31 0.31 96 1019.1
20220811025824 73 0 0.0 0.0 0.00 0.31 0.31 97 1019.1
20220811025602 73 0 0.0 0.0 0.00 0.31 0.31 97 1019.2
20220811025402 73 0 0.0 0.0 0.00 0.31 0.31 97 1019.1
20220811025244 73 0 0.0 0.0 0.00 0.31 0.31 97 1019.2
20220811025024 73 0 0.0 0.0 0.00 0.31 0.31 97 1019.2
20220811024802 73 0 0.0 0.0 0.00 0.31 0.31 97 1019.1
20220811024605 73 0 0.0 0.0 0.00 0.31 0.31 97 1019.1
20220811024445 73 0 0.0 0.0 0.00 0.31 0.31 97 1019.1
20220811024245 73 0 0.0 0.0 0.00 0.31 0.31 96 1019.0
20220811024016 73 0 0.0 0.0 0.00 0.31 0.31 96 1019.0
20220811023803 73 0 0.0 0.0 0.00 0.31 0.31 96 1019.0
20220811023602 73 0 0.0 0.0 0.00 0.31 0.31 96 1019.0
20220811023402 73 0 0.0 0.0 0.00 0.31 0.31 96 1019.0
20220811023202 73 0 0.0 0.0 0.00 0.31 0.31 96 1018.9
20220811023023 73 0 0.0 0.0 0.00 0.31 0.31 96 1019.0
20220811022802 73 0 0.0 0.0 0.00 0.31 0.31 96 1018.9
20220811022623 73 0 0.0 0.0 0.00 0.31 0.31 96 1018.9
20220811022424 73 0 0.0 0.0 0.00 0.31 0.31 96 1018.8
20220811022224 73 0 0.0 0.0 0.00 0.31 0.31 96 1018.8
20220811022024 73 0 0.0 0.0 0.01 0.31 0.31 96 1018.8
20220811021803 73 0 0.0 0.0 0.01 0.31 0.31 96 1018.8
20220811021624 73 0 0.0 0.0 0.01 0.31 0.31 96 1018.8
20220811021402 73 0 0.0 0.0 0.01 0.31 0.31 96 1018.8
20220811021223 73 0 0.0 0.0 0.01 0.31 0.31 96 1018.8
20220811021023 73 0 0.0 0.0 0.01 0.31 0.31 96 1018.8
20220811020823 73 0 0.0 0.0 0.02 0.31 0.31 96 1018.8
20220811020623 73 0 0.0 0.0 0.02 0.31 0.31 96 1018.7
20220811020423 73 0 0.0 0.0 0.02 0.31 0.31 96 1018.8
20220811020203 73 0 0.0 0.0 0.02 0.31 0.31 96 1018.8
20220811020024 73 0 0.0 0.0 0.02 0.31 0.31 96 1018.8
20220811015803 73 0 0.0 0.0 0.02 0.31 0.31 96 1018.8
20220811015603 73 0 0.0 0.0 0.02 0.31 0.31 96 1018.8
20220811015403 73 0 0.0 0.0 0.02 0.31 0.31 96 1018.8
20220811015202 73 0 0.0 0.0 0.02 0.31 0.31 96 1018.8
20220811015044 73 0 0.0 0.0 0.02 0.31 0.31 95 1018.8
20220811014802 73 0 0.0 0.0 0.02 0.31 0.31 95 1018.8
20220811014602 73 0 0.0 0.0 0.02 0.31 0.31 95 1018.8
20220811014402 73 0 0.0 0.0 0.02 0.31 0.31 95 1018.8
20220811014245 73 0 0.0 0.0 0.02 0.31 0.31 95 1018.8
20220811014003 73 0 0.0 0.0 0.02 0.31 0.31 95 1018.7
20220811013845 73 0 0.0 0.0 0.02 0.31 0.31 95 1018.8
20220811013624 73 0 0.0 0.0 0.02 0.31 0.31 95 1018.7
20220811013424 73 0 0.0 0.0 0.02 0.31 0.31 95 1018.7
20220811013203 73 0 0.0 0.0 0.02 0.31 0.31 95 1018.7
20220811013003 73 0 0.0 0.0 0.02 0.31 0.31 95 1018.7
20220811012823 73 0 0.0 0.0 0.02 0.31 0.31 95 1018.7
20220811012602 73 0 0.0 0.0 0.02 0.31 0.31 95 1018.6
20220811012402 73 0 0.0 0.0 0.02 0.31 0.31 95 1018.6
20220811012223 73 0 0.0 0.0 0.01 0.30 0.30 95 1018.7
20220811012003 74 0 0.0 0.0 0.01 0.30 0.30 95 1018.7
20220811011803 74 0 0.0 0.0 0.01 0.30 0.30 95 1018.6
20220811011645 74 0 0.0 0.0 0.01 0.30 0.30 95 1018.6
20220811011424 74 0 0.0 0.0 0.01 0.30 0.30 95 1018.5
20220811011224 74 0 0.0 0.0 0.02 0.30 0.30 95 1018.6
20220811011002 74 0 0.0 0.0 0.02 0.30 0.30 95 1018.5
20220811010802 74 0 0.0 0.0 0.01 0.29 0.29 95 1018.6
20220811010623 74 0 0.0 0.0 0.01 0.29 0.29 95 1018.5
20220811010444 74 0 0.0 0.0 0.01 0.29 0.29 95 1018.5
20220811010244 74 0 0.0 0.0 0.01 0.29 0.29 95 1018.5
20220811010002 74 0 0.0 0.0 0.01 0.29 0.29 95 1018.5
20220811005824 74 0 0.0 0.0 0.01 0.29 0.29 95 1018.5
20220811005624 74 0 0.0 0.0 0.01 0.29 0.29 95 1018.5
20220811005403 74 0 0.0 0.0 0.01 0.29 0.29 95 1018.5
20220811005245 74 0 0.0 0.0 0.01 0.29 0.29 95 1018.5
20220811005003 74 0 0.0 0.0 0.01 0.29 0.29 95 1018.5
20220811004823 74 0 0.0 0.0 0.01 0.29 0.29 95 1018.6
20220811004644 74 0 0.0 0.0 0.01 0.29 0.29 95 1018.5
20220811004423 74 0 0.0 0.0 0.01 0.29 0.29 95 1018.5
20220811004223 74 0 0.0 0.0 0.01 0.29 0.29 95 1018.6
20220811004002 74 0 0.0 0.0 0.02 0.29 0.29 95 1018.6
20220811003802 74 0 0.0 0.0 0.02 0.29 0.29 95 1018.6
20220811003645 74 0 0.0 0.0 0.02 0.29 0.29 95 1018.5
20220811003403 74 0 0.0 0.0 0.02 0.29 0.29 95 1018.6
20220811003224 74 0 0.0 0.0 0.02 0.29 0.29 95 1018.5